This is the latest recevied weather packets stored in our database for station/object OK1FET-5. If no packets are shown the sender has not sent any weather packets the latest 10 day(s).
| Time | Temp. | Humidity | Pressure | Rain* | Wind** | Luminosity | Snow |
|---|---|---|---|---|---|---|---|
| 1777837626 | 19.44° C | 33% | 1013 hPa | - | - | - | - |
| 1777836741 | 20° C | 32% | 1012.9 hPa | - | - | - | - |
| 1777835562 | 20.56° C | 31% | 1012.8 hPa | - | - | - | - |
| 1777835267 | 20.56° C | 30% | 1012.8 hPa | - | - | - | - |
| 1777833792 | 21.11° C | 28% | 1012.6 hPa | - | - | - | - |
| 1777832907 | 21.67° C | 28% | 1012.4 hPa | - | - | - | - |
| 1777832612 | 22.22° C | 28% | 1012.3 hPa | - | - | - | - |
| 1777832022 | 22.22° C | 28% | 1012.3 hPa | - | - | - | - |
| 1777831432 | 22.78° C | 27% | 1012.2 hPa | - | - | - | - |
| 1777829366 | 23.89° C | 26% | 1012 hPa | - | - | - | - |
| 1777824344 | 26.11° C | 22% | 1012.3 hPa | - | - | - | - |
| 1777822570 | 26.67° C | 22% | 1012.6 hPa | - | - | - | - |
| 1777821979 | 27.22° C | 22% | 1012.7 hPa | - | - | - | - |
| 1777821683 | 27.22° C | 21% | 1012.7 hPa | - | - | - | - |
| 1777821091 | 27.22° C | 21% | 1012.7 hPa | - | - | - | - |
| 1777820500 | 27.22° C | 21% | 1012.9 hPa | - | - | - | - |
| 1777820204 | 27.22° C | 22% | 1013 hPa | - | - | - | - |
| 1777819317 | 27.22° C | 21% | 1013.2 hPa | - | - | - | - |
| 1777818725 | 27.22° C | 22% | 1013.4 hPa | - | - | - | - |
| 1777818133 | 27.78° C | 22% | 1013.6 hPa | - | - | - | - |
| 1777817838 | 27.78° C | 22% | 1013.5 hPa | - | - | - | - |
| 1777817542 | 27.78° C | 22% | 1013.7 hPa | - | - | - | - |
| 1777815471 | 28.33° C | 23% | 1014.2 hPa | - | - | - | - |
| 1777814879 | 28.33° C | 23% | 1014.3 hPa | - | - | - | - |
| 1777814288 | 28.33° C | 24% | 1014.6 hPa | - | - | - | - |
* Rain since midnight (hover to see other rain measurements)
** Current wind speed in m/s (hover to see current wind gust speed)